User: anonymous
Location: Mentone
(34.5413°N, 85.5351°W)
Time: 04:43:04
(UTC-05:00)
Language:

SL-8 R/B - Orbit

View from above orbital plane
View from above orbital plane
View from above satellite
View from above satellite

Ground track
Ground track

The orbit data is extracted from the following two-line orbital elements,

1 33066U 08031G   14292.17431141  .00000382  00000-0  97644-4 0  9212
2 33066 048.4438 335.5117 0007942 325.3524 075.0605 14.68914687339824
Epoch (UTC): 19 October 2014 04:11:00
Eccentricity: 0.0007942
inclination: 48.4438°
perigee height: 659 km
apogee height: 670 km
right ascension of ascending node: 335.5117°
argument of perigee: 325.3524°
revolutions per day: 14.68914687
mean anomaly at epoch: 75.0605°
orbit number at epoch: 33982

The dashed part of the orbit path shows where the satellite is in the earth's shadow,  

DLR